TimeEDT,TemperatureF,Dew PointF,Humidity,Sea Level PressureIn,VisibilityMPH,Wind Direction,Wind SpeedMPH,Gust SpeedMPH,PrecipitationIn,Events,Conditions,WindDirDegrees,DateUTC
12:15 AM,73.9,71.4,92,30.16,10.0,SW,4.6,-,N/A,,Overcast,220,2013-06-25 04:15:00
12:35 AM,73.8,71.6,93,30.16,5.0,SSW,3.5,-,N/A,,Overcast,210,2013-06-25 04:35:00
12:55 AM,73.6,72.0,95,30.15,4.0,SSW,4.6,-,N/A,,Overcast,200,2013-06-25 04:55:00
1:15 AM,73.8,72.5,96,30.15,3.0,SSW,5.8,-,N/A,,Overcast,200,2013-06-25 05:15:00
1:35 AM,73.9,72.7,96,30.15,2.0,SSW,6.9,-,N/A,,Overcast,210,2013-06-25 05:35:00
1:55 AM,73.9,72.9,96,30.15,5.0,SSW,9.2,-,N/A,,Overcast,210,2013-06-25 05:55:00
2:15 AM,73.9,72.7,96,30.14,7.0,SSW,5.8,-,N/A,,Overcast,210,2013-06-25 06:15:00
2:35 AM,73.6,72.5,96,30.14,7.0,SSW,4.6,-,N/A,,Scattered Clouds,210,2013-06-25 06:35:00
2:55 AM,73.4,72.0,95,30.14,5.0,SSW,4.6,-,N/A,,Clear,210,2013-06-25 06:55:00
3:15 AM,73.4,72.1,96,30.14,5.0,SSW,5.8,-,N/A,,Clear,210,2013-06-25 07:15:00
3:35 AM,73.2,72.0,96,30.14,7.0,SSW,4.6,-,N/A,,Scattered Clouds,210,2013-06-25 07:35:00
3:55 AM,72.5,71.6,97,30.14,5.0,SSW,4.6,-,N/A,,Scattered Clouds,200,2013-06-25 07:55:00
4:15 AM,72.5,71.6,97,30.14,5.0,SSW,3.5,-,N/A,,Scattered Clouds,200,2013-06-25 08:15:00
4:35 AM,73.4,72.1,96,30.14,5.0,SSW,4.6,-,N/A,,Mostly Cloudy,200,2013-06-25 08:35:00
4:55 AM,73.4,72.5,97,30.14,7.0,SSW,5.8,-,N/A,,Overcast,210,2013-06-25 08:55:00
5:15 AM,73.9,72.9,96,30.14,7.0,SW,8.1,-,N/A,,Overcast,230,2013-06-25 09:15:00
5:35 AM,74.3,72.9,95,30.14,7.0,SW,8.1,-,N/A,,Overcast,220,2013-06-25 09:35:00
5:55 AM,73.9,72.5,95,30.14,7.0,SW,6.9,-,N/A,,Mostly Cloudy,220,2013-06-25 09:55:00
6:15 AM,73.6,72.1,95,30.14,7.0,SW,5.8,-,N/A,,Scattered Clouds,220,2013-06-25 10:15:00
6:35 AM,73.6,72.1,95,30.14,7.0,SW,5.8,-,N/A,,Clear,220,2013-06-25 10:35:00
6:55 AM,74.1,72.1,94,30.14,10.0,SW,4.6,-,N/A,,Clear,220,2013-06-25 10:55:00
6:56 AM,73.4,71.6,94,30.14,7.0,SW,4.6,-,N/A,,Clear,230,2013-06-25 10:56:00
7:56 AM,75.2,71.6,89,30.14,7.0,SW,10.4,-,N/A,,Mostly Cloudy,220,2013-06-25 11:56:00
8:56 AM,78.8,73.4,83,30.13,7.0,SW,8.1,-,N/A,,Overcast,220,2013-06-25 12:56:00
9:56 AM,80.6,73.4,79,30.13,7.0,SW,13.8,18.4,N/A,,Overcast,230,2013-06-25 13:56:00
10:56 AM,84.2,73.4,70,30.13,10.0,SW,9.2,16.1,N/A,,Scattered Clouds,230,2013-06-25 14:56:00
11:56 AM,86.0,73.4,66,30.13,10.0,SW,9.2,-,N/A,,Scattered Clouds,220,2013-06-25 15:56:00
12:56 PM,87.8,73.4,62,30.12,7.0,SW,8.1,16.1,N/A,,Scattered Clouds,230,2013-06-25 16:56:00
1:56 PM,87.8,73.4,62,30.10,10.0,SSW,9.2,-,N/A,,Scattered Clouds,210,2013-06-25 17:56:00
2:56 PM,89.6,71.6,55,30.07,10.0,SSW,10.4,-,N/A,,Scattered Clouds,200,2013-06-25 18:56:00
3:56 PM,91.4,73.4,55,30.05,10.0,SW,6.9,-,N/A,,Scattered Clouds,220,2013-06-25 19:56:00
4:56 PM,82.4,69.8,66,30.08,2.0,NW,18.4,33.4,N/A,Rain,Light Rain,320,2013-06-25 20:56:00
5:56 PM,71.6,69.8,94,30.09,10.0,ESE,5.8,-,N/A,,Scattered Clouds,120,2013-06-25 21:56:00
6:56 PM,71.6,69.8,94,30.05,10.0,South,5.8,-,N/A,,Scattered Clouds,180,2013-06-25 22:56:00
8:56 PM,71.6,69.8,94,30.04,7.0,SSW,6.9,-,N/A,,Clear,200,2013-06-26 00:56:00
9:15 PM,72.0,70.3,95,30.04,10.0,SSW,9.2,-,N/A,,Clear,200,2013-06-26 01:15:00
9:35 PM,72.0,70.2,94,30.04,10.0,SW,6.9,-,N/A,,Clear,220,2013-06-26 01:35:00
9:55 PM,71.8,70.2,95,30.04,10.0,WSW,5.8,-,N/A,,Clear,240,2013-06-26 01:55:00
10:15 PM,72.0,70.3,95,30.05,10.0,SW,3.5,-,N/A,,Clear,230,2013-06-26 02:15:00
10:35 PM,72.0,70.3,95,30.05,10.0,WSW,3.5,-,N/A,,Clear,240,2013-06-26 02:35:00
10:55 PM,72.0,70.3,95,30.06,10.0,SW,5.8,-,N/A,,Clear,230,2013-06-26 02:55:00
11:15 PM,72.5,70.5,93,30.06,10.0,SW,6.9,-,N/A,,Clear,220,2013-06-26 03:15:00
11:35 PM,73.0,70.3,91,30.07,10.0,SW,8.1,-,N/A,,Clear,220,2013-06-26 03:35:00
11:55 PM,73.0,69.8,90,30.06,10.0,SSW,9.2,-,N/A,,Clear,210,2013-06-26 03:55:00